Regional Weather Roundup
Issued by NWS

Home | Current Version | Previous Version | Text Only | Print | Product List | Glossary Off
Versions: 1 2 3 4 5 6 7 8 9 10 11 12 13 14 15 16 17 18 19 20 21 22 23 24 25 26 27 28 29 30 31 32 33 34 35 36 37 38 39 40 41 42 43 44 45 46 47 48 49 50

008
ASUS45 KTFX 080610
RWRMT
MONTANA REGIONAL WEATHER ROUNDUP
NATIONAL WEATHER SERVICE GREAT FALLS MT
1100 PM MST SUN FEB 07 2016

NOTE: "FAIR" INDICATES FEW OR NO CLOUDS BELOW 12000 FEET WITH NO
SIGNIFICANT WEATHER AND/OR OBSTRUCTIONS TO VISIBILITY.

MTZ001>007-043-080700-
WEST OF THE DIVIDE

CITY           SKY/WX    TMP DP  RH WIND       PRES   REMARKS
KALISPELL      CLOUDY    32  28  85 W5        30.60S
MISSOULA       CLOUDY    33  27  78 S6        30.62R WCI  28
BUTTE          CLOUDY    31  17  56 N8        30.54S WCI  23
MULLAN PASS    CLOUDY    28  20  71 SW10      30.54F WCI  19
ANACONDA         N/A     30  18  59 CALM      30.55F
DEER LODGE       N/A     30  21  69 CALM      30.57F
HAMILTON         N/A     36  23  60 S3        30.59F
LIBBY            N/A     30  27  86 CALM      30.63R
PLAINS           N/A     33  26  76 W1        30.57F
THOMPSON FALLS   N/A     35  29  79 CALM      30.63F
$$

MTZ008-052>055-080700-
SOUTHWEST MONTANA

CITY           SKY/WX    TMP DP  RH WIND       PRES   REMARKS
BOZEMAN        CLOUDY    30  23  75 CALM      30.52R
DILLON         CLOUDY    30  19  63 S9        30.54S WCI  22
ENNIS          CLOUDY    34  21  60 S7        30.57S WCI  28
TWIN BRIDGES     N/A     31  20  63 SW3       30.46S
$$

MTZ009-010-012-014-046-048-049-054-080700-
EAST SLOPES AND CENTRAL MONTANA

CITY           SKY/WX    TMP DP  RH WIND       PRES   REMARKS
CUT BANK       CLEAR     35  22  58 W17       30.38F WCI  25
GREAT FALLS    CLOUDY    30  17  58 SW10      30.42S WCI  21
MALMSTROM AFB  MOCLDY    30  19  63 SW13      30.42F WCI  20
HELENA         CLEAR     40  21  46 W13       30.49S
CHOTEAU          N/A     36  23  60 W6        30.40F WCI  31
CONRAD           N/A     21  16  81 S2        30.37S
$$

MTZ011-013-016-021-045-047-050-051-080700-
NORTH CENTRAL MONTANA

CITY           SKY/WX    TMP DP  RH WIND       PRES   REMARKS
HAVRE          CLOUDY    22  16  78 CALM      30.44S
LEWISTOWN      CLEAR     22  12  65 E5        30.41S
N BAR RANCH      N/A     21  10  63 CALM      30.43S
CHINOOK          N/A     21  14  73 CALM      30.46S
$$

MTZ017>020-022>027-061-062-080700-
NORTHEAST MONTANA

CITY           SKY/WX    TMP DP  RH WIND       PRES   REMARKS
GLASGOW        CLEAR     23  16  74 W7        30.41R WCI  15
JORDAN           N/A     25  18  74 W9        30.42R WCI  15
SIDNEY         CLEAR     27  16  63 NW15      30.34S WCI  15
WOLF POINT     CLEAR     29  16  58 NW15      30.39S WCI  18
PLENTYWOOD       N/A     25  18  74 W10       30.32R WCI  15
POPLAR           N/A     27  16  63 NW9       30.37F WCI  17
$$

MTZ028>42-056>058-080700-
SOUTHCENTRAL AND SOUTHEAST MONTANA

CITY           SKY/WX    TMP DP  RH WIND       PRES   REMARKS
BAKER          CLEAR     25  14  63 W14       30.33R WCI  13
BILLINGS       CLOUDY    32  12  43 CALM      30.43F
LIVINGSTON     CLOUDY    42  13  30 W17       30.45S
MILES CITY     CLEAR     26  15  63 W12       30.41S WCI  16
FORSYTH          N/A     28  14  54 W5        30.46R
LAUREL           N/A     32  11  41 CALM      30.37F
ROUNDUP          N/A     25   8  48 CALM      30.31S
$$

REGIONAL REPORTS...DAKOTAS

CITY           SKY/WX    TMP DP  RH WIND       PRES   REMARKS
WILLISTON      CLEAR     27  19  72 NW21G28   30.30S WCI  13
MINOT          FLURRIES  29  16  58 NW23G39   30.18R WCI  15
DICKINSON      CLEAR     25  14  63 NW17      30.25R WCI  12
BEACH            N/A     23  16  74 NW14      30.35R WCI  11
CROSBY           N/A     25  21  86 NW17G23   30.30S WCI  11
TIOGA            N/A     23  19  86 NW16G23   30.30R WCI  10
WATFORD CITY     N/A     25  19  80 NW13      30.30S WCI  13
BISMARCK       CLEAR     30  17  58 NW28G36   30.17R WCI  15
GRAND FORKS    LGT SNOW  15   9  76 N28G36    30.05S BLWGSNOWWCI  -5
FARGO          SNOW      14  10  84 N31G39    30.04R VSB 1/2 WCI  -7
BUFFALO SD       N/A     27  14  58 NW28      30.22S WCI  11
RAPID CITY     CLEAR     30   9  41 NW30G41   30.28S WCI  15
$$

REGIONAL REPORTS...WYOMING/IDAHO/WASHINGTON

CITY           SKY/WX    TMP DP  RH WIND       PRES   REMARKS
GILLETTE       CLEAR     25   9  50 NW13      30.37F WCI  14
SHERIDAN       CLOUDY    31  12  45 W9        30.42F WCI  23
BUFFALO WY     CLOUDY    26  11  52 NW3       30.39F
CODY           CLOUDY    27  12  54 SE5       30.41F
YELLOWSTONE LA   N/A     22  13  68 CALM      30.55R
IDAHO FALLS    FOG       22  20  92 N3        30.67R VSB 1/2
SALMON         CLOUDY    16  12  86 CALM      30.69R
BOISE          CLEAR     34  30  85 CALM      30.66R
SPOKANE        MOCLDY    35  29  78 CALM      30.62R
$$

REGIONAL REPORTS...ALBERTA

CITY           SKY/WX    TMP DP  RH WIND       PRES   REMARKS
EDMONTON       CLOUDY    28  18  64 W5        30.34R
CALGARY        CLEAR     27  10  50 S5        30.31F
LETHBRIDGE     CLEAR     37  23  56 W16       30.35F WCI  28
MEDICINE HAT   CLEAR     19  16  86 S5        30.39F
WATERTON GATE    N/A     37  21  52 SW30G48     N/A  WCI  25
CARDSTON         N/A     41  23  48 W13G20      N/A
MILK RIVER       N/A     19  14  79 SE1         N/A
$$

REGIONAL REPORTS...SASKATCHEWAN

CITY           SKY/WX    TMP DP  RH WIND       PRES   REMARKS
SWIFT CURRENT  CLEAR     21  16  79 W12       30.34F WCI   9
SASKATOON      CLEAR     16  14  93 W8        30.32F WCI   5
VAL MARIE        N/A     18  10  73 N1          N/A
ROCKGLEN         N/A     25  14  63 NW17G24     N/A  WCI  11
ASSINIBOIA       N/A     21  19  93 SW5         N/A
$$




USA.gov is the U.S. government's official web portal to all federal, state and local government web resources and services.